Location: *
(32.8140°S, 174.6161°E)
Time: 07:34:05
(UTC+00:00)

SJ-6F - Pass Details

Date: 10 December 2019
Orbit: 572 x 593 km, 97.7° (Epoch: 24 January)

Event Time Altitude Azimuth Distance (km) Brightness Sun altitude
Rises 16:01:55 0° 11° (N) 2,809 7.7 -12.2°
Reaches altitude 10° 16:04:03 10° 10° (N) 1,919 6.8 -11.9°
Maximum altitude 16:08:14 82° 283° (WNW) 610 4.4 -11.2°
Drops below altitude 10° 16:12:29 10° 194° (SSW) 1,953 7.4 -10.4°
Sets 16:14:41 0° 192° (SSW) 2,864 8.3 -10.1°
